COSMOS 1691 DEB, 16267

Orbit data source: Space-Track

COSMOS 1691 DEB, 16267 is space debris in LEO originally from a launch on Wed, 09 Oct 1985 UTC launched from the Plesetsk Missile And Space Complex (PKMTR). Debris objects in space refer to the collection of defunct objects orbiting the Earth. Examples of debris include non-operational satellites, rocket bodies, and fragments generated from explosions, collisions, or faulty payload assembly.

Loading next visibility...
Identifier
16267, 1985-094L
Orbit
LEO
Country
Flag of CISCIS
Related business
Manufacturer
Unknown
Mission
Spacecraft
Bus & Motor
Unknown
Mass
Unknown
Launch date (UTC)
1985-10-09 (40 years ago)
Launch vehicle
Unknown
Launch site
Plesetsk Missile And Space Complex (PKMTR)
Object type
Payload
Rocket body
Debris
Shape & HBR
Unknown shape, 0.1 m
Radar Cross Section
Small (<0.1 m²)

Expand to show TLE details & history
Last TLE update: 13 hours ago

TLE from 13 hours ago
0 COSMOS 1691 DEB
1 16267U 85094L   25295.09952242  .00003578  00000-0  89562-2 0  9999
2 16267  82.6343 320.6321 0053867   0.8482  55.7151 13.18809130512992
Epoch: 2025-10-22T02:23Z
TLE epoch observation values (Epoch: 2025-10-22T02:23:18.737Z)
Latitude
56.44641°
Longitude
-94.79249°
Altitude
1,175.853 km
Speed
7.282 km/s
True Right ascension
22h 07m 15s
True Declination
56° 17' 48"
Sunlit
Object was in daylight at epoch
Visualization orbit readout
Latitude
Unknown
Longitude
Unknown
Altitude
Unknown
Speed
Unknown
Apparent Right ascension
Unknown
Apparent Declination
Unknown
Sunlit
N/A
Visualization observer readout
Local Sidereal Time
10:02:52
Azimuth
Unknown
Elevation
Unknown
Doppler factor
Unknown
Orbital elements
Apogee altitude
1,227.259 km
Perigee altitude
1,145.762 km
Semi-major axis
7,564.648 km
Eccentricity
0.00539
Inclination
82.6343°
RAAN
320.6321°
Arg. of periapsis
0.8482°
True anomaly
56.22705°
Mean anomaly
55.7151°
Eccentric anomaly
55.97088°
Mean motion
3.29883 °/min
Orbital period
109.13 mins
BSTAR
0.0089562
Loading maneuver chart data...
Computing Atmospheric mass density...
Loading historical data...
Loading historical data...
Loading historical data...
Loading historical data...
Loading historical data...
Loading historical data...
Loading historical data...

Documentation

Showing up to 5 results
|